Time,TemperatureF,DewpointF,PressureIn,WindDirection,WindDirectionDegrees,WindSpeedMPH,WindSpeedGustMPH,Humidity,HourlyPrecipIn,Conditions,Clouds,dailyrainin,SoftwareType,DateUTC
2013-03-06 00:42:00,33.0,18.0,-100.00,ESE,117,16.0,-999.0,52,-99.99,,,0.00,,2013-03-06 07:42:00,
2013-03-06 00:52:00,33.0,18.0,-100.00,ESE,117,16.0,-999.0,52,-99.99,,,0.00,,2013-03-06 07:52:00,
2013-03-06 01:01:00,33.0,18.0,-100.00,ESE,117,16.0,-999.0,52,-99.99,,,0.00,,2013-03-06 08:01:00,
2013-03-06 01:11:00,33.0,18.0,-100.00,ESE,117,16.0,-999.0,52,-99.99,,,0.00,,2013-03-06 08:11:00,
2013-03-06 02:42:00,33.0,18.0,-100.00,ESE,105,6.0,-999.0,52,-99.99,,,0.00,,2013-03-06 09:42:00,
2013-03-06 02:52:00,33.0,18.0,-100.00,ESE,105,6.0,-999.0,52,-99.99,,,0.00,,2013-03-06 09:52:00,
2013-03-06 03:01:00,33.0,18.0,-100.00,ESE,105,6.0,-999.0,52,-99.99,,,0.00,,2013-03-06 10:01:00,
2013-03-06 03:11:00,33.0,18.0,-100.00,ESE,105,6.0,-999.0,52,-99.99,,,0.00,,2013-03-06 10:11:00,
2013-03-06 04:42:00,30.0,19.0,-100.00,SSW,210,1.0,-999.0,62,-99.99,,,0.00,,2013-03-06 11:42:00,
2013-03-06 04:52:00,30.0,19.0,-100.00,SSW,210,1.0,-999.0,62,-99.99,,,0.00,,2013-03-06 11:52:00,
2013-03-06 05:01:00,30.0,19.0,-100.00,SSW,210,1.0,-999.0,62,-99.99,,,0.00,,2013-03-06 12:01:00,
2013-03-06 05:11:00,30.0,19.0,-100.00,SSW,210,1.0,-999.0,62,-99.99,,,0.00,,2013-03-06 12:11:00,
2013-03-06 06:42:00,30.0,20.0,-100.00,SSW,208,2.0,-999.0,66,-99.99,,,0.00,,2013-03-06 13:42:00,
2013-03-06 06:52:00,30.0,20.0,-100.00,SSW,208,2.0,-999.0,66,-99.99,,,0.00,,2013-03-06 13:52:00,
2013-03-06 07:01:00,30.0,20.0,-100.00,SSW,208,2.0,-999.0,66,-99.99,,,0.00,,2013-03-06 14:01:00,
2013-03-06 07:11:00,30.0,20.0,-100.00,SSW,208,2.0,-999.0,66,-99.99,,,0.00,,2013-03-06 14:11:00,
2013-03-06 08:42:00,39.0,22.0,-100.00,ESE,104,7.0,-999.0,50,-99.99,,,0.00,,2013-03-06 15:42:00,
2013-03-06 08:52:00,39.0,22.0,-100.00,ESE,104,7.0,-999.0,50,-99.99,,,0.00,,2013-03-06 15:52:00,
2013-03-06 09:01:00,39.0,22.0,-100.00,ESE,104,7.0,-999.0,50,-99.99,,,0.00,,2013-03-06 16:01:00,
2013-03-06 09:11:00,39.0,22.0,-100.00,ESE,104,7.0,-999.0,50,-99.99,,,0.00,,2013-03-06 16:11:00,
2013-03-06 10:41:00,43.0,23.0,-100.00,ESE,110,6.0,-999.0,44,-99.99,,,0.00,,2013-03-06 17:41:00,
2013-03-06 10:52:00,43.0,23.0,-100.00,ESE,110,6.0,-999.0,44,-99.99,,,0.00,,2013-03-06 17:52:00,
2013-03-06 11:01:00,43.0,23.0,-100.00,ESE,110,6.0,-999.0,44,-99.99,,,0.00,,2013-03-06 18:01:00,
2013-03-06 12:43:00,45.0,25.0,-100.00,East,90,7.0,-999.0,45,-99.99,,,-99.99,,2013-03-06 19:43:00,
2013-03-06 12:53:00,45.0,25.0,-100.00,East,90,7.0,-999.0,45,-99.99,,,-99.99,,2013-03-06 19:53:00,
2013-03-06 13:01:00,45.0,25.0,-100.00,East,90,7.0,-999.0,45,-99.99,,,-99.99,,2013-03-06 20:01:00,
2013-03-06 13:11:00,45.0,25.0,-100.00,East,90,7.0,-999.0,45,-99.99,,,-99.99,,2013-03-06 20:11:00,
2013-03-06 14:42:00,49.0,24.0,-100.00,ESE,115,7.0,-999.0,37,-99.99,,,0.00,,2013-03-06 21:42:00,
2013-03-06 14:52:00,49.0,24.0,-100.00,ESE,115,7.0,-999.0,37,-99.99,,,0.00,,2013-03-06 21:52:00,
2013-03-06 15:01:00,49.0,24.0,-100.00,ESE,115,7.0,-999.0,37,-99.99,,,0.00,,2013-03-06 22:01:00,
2013-03-06 15:11:00,49.0,24.0,-100.00,ESE,115,7.0,-999.0,37,-99.99,,,0.00,,2013-03-06 22:11:00,
2013-03-06 16:42:00,48.0,27.0,-100.00,SW,223,3.0,-999.0,43,-99.99,,,0.00,,2013-03-06 23:42:00,
2013-03-06 16:52:00,48.0,27.0,-100.00,SW,223,3.0,-999.0,43,-99.99,,,0.00,,2013-03-06 23:52:00,
2013-03-06 17:01:00,48.0,27.0,-100.00,SW,223,3.0,-999.0,43,-99.99,,,0.00,,2013-03-07 00:01:00,
2013-03-06 17:11:00,48.0,27.0,-100.00,SW,223,3.0,-999.0,43,-99.99,,,0.00,,2013-03-07 00:11:00,
2013-03-06 18:41:00,47.0,25.0,-100.00,SW,223,5.0,-999.0,42,-99.99,,,0.00,,2013-03-07 01:41:00,
2013-03-06 18:52:00,47.0,25.0,-100.00,SW,223,5.0,-999.0,42,-99.99,,,0.00,,2013-03-07 01:52:00,
2013-03-06 19:01:00,47.0,25.0,-100.00,SW,223,5.0,-999.0,42,-99.99,,,0.00,,2013-03-07 02:01:00,
2013-03-06 19:11:00,47.0,25.0,-100.00,SW,223,5.0,-999.0,42,-99.99,,,0.00,,2013-03-07 02:11:00,
2013-03-06 20:41:00,43.0,27.0,-100.00,SW,222,3.0,-999.0,52,-99.99,,,0.00,,2013-03-07 03:41:00,
2013-03-06 20:52:00,43.0,27.0,-100.00,SW,222,3.0,-999.0,52,-99.99,,,0.00,,2013-03-07 03:52:00,
2013-03-06 21:01:00,43.0,27.0,-100.00,SW,222,3.0,-999.0,52,-99.99,,,0.00,,2013-03-07 04:01:00,
2013-03-06 21:11:00,43.0,27.0,-100.00,SW,222,3.0,-999.0,52,-99.99,,,0.00,,2013-03-07 04:11:00,
2013-03-06 22:42:00,34.0,34.0,-100.00,NNW,347,4.0,-999.0,108,-99.99,,,0.00,,2013-03-07 05:42:00,
2013-03-06 22:52:00,34.0,34.0,-100.00,NNW,347,4.0,-999.0,108,-99.99,,,0.00,,2013-03-07 05:52:00,
2013-03-06 23:01:00,34.0,34.0,-100.00,NNW,347,4.0,-999.0,108,-99.99,,,0.00,,2013-03-07 06:01:00,
2013-03-06 23:11:00,34.0,34.0,-100.00,NNW,347,4.0,-999.0,108,-99.99,,,0.00,,2013-03-07 06:11:00,